Flag for U.S.A. Weather past 2 weeks in Huntsville, Alabama, U.S.A.

Now
93 °F

Partly sunny.


Feels Like: 92 °F
Forecast: 63 / 92 °F
Wind: 12 mph from Southwest

Location: Huntsville International / Jones Field

Current Time: Aug 29, 2014 at 3:33:24 PM

Latest Report: Aug 29, 2014 at 1:53 PM


Visibility: 10 mi

Pressure: 30.00 "Hg

Humidity: 31%

Dew point: 58 °F

Location of HuntsvilleLocation

Historic Weather in Huntsville — Graph

°F

Huntsville temperature yesterday

Maximum temperature yesterday: 93 °F (at 2:53 PM)
Minimum temperature yesterday: 70 °F (at 4:53 AM)
Average temperature yesterday: 81 °F

Past Weeks' High & Low Weather Summary

 TemperatureHumidityPressure
High96 °F (Aug 23, 1:53 PM)97% (Aug 18, 6:53 AM)30.14 "Hg (Aug 18, 6:53 AM)
Low61 °F (Aug 15, 5:53 AM)31% (Aug 29, 1:53 PM)29.85 "Hg (Aug 18, 6:53 PM)
Average80 °F69%29.99 "Hg
* Reported Aug 14 1:53 PM — Aug 29 1:53 PM, Huntsville, Weather by CustomWeather, © 2014

Note: Actual official high and low records may vary slightly from our data, if they occured in-between our weather recording intervals... More about our weather records

Advertising

Huntsville weather history for previous 24 hours

 ConditionsComfort  
Time TempWeatherWind HumidityBarometerVisibility
1:53 PM
Aug 29
93 °FPartly sunny.12 mph31%30.00 "Hg10 mi
12:53 PM90 °FBroken clouds.8 mph38%30.02 "Hg10 mi
11:53 AM90 °FScattered clouds.6 mph41%30.03 "Hg10 mi
10:53 AM87 °FPassing clouds.5 mph45%30.03 "Hg10 mi
9:53 AM84 °FScattered clouds.5 mph49%30.04 "Hg10 mi
8:53 AM79 °FScattered clouds.3 mph62%30.03 "Hg10 mi
7:53 AM74 °FScattered clouds.3 mph76%30.03 "Hg10 mi
6:53 AM70 °FPassing clouds.3 mph87%30.02 "Hg9 mi
5:53 AM70 °FPassing clouds.3 mph84%30.01 "Hg10 mi
4:53 AM70 °FClear.5 mph87%29.99 "Hg10 mi
3:53 AM72 °FClear.6 mph81%29.98 "Hg10 mi
2:53 AM73 °FClear.6 mph79%29.98 "Hg10 mi
1:53 AM73 °FClear.No wind81%29.98 "Hg10 mi
12:53 AM73 °FClear.5 mph81%29.98 "Hg10 mi
11:53 PM
Aug 28
75 °FClear.3 mph76%29.98 "Hg10 mi
10:53 PM77 °FClear.5 mph74%29.97 "Hg10 mi
9:53 PM79 °FClear.5 mph65%29.97 "Hg10 mi
8:53 PM82 °FClear.5 mph56%29.97 "Hg10 mi
7:53 PM84 °FPassing clouds.3 mph53%29.96 "Hg10 mi
6:53 PM88 °FPassing clouds.5 mph45%29.94 "Hg10 mi
5:53 PM91 °FPassing clouds.7 mph38%29.93 "Hg10 mi
4:53 PM92 °FPassing clouds.5 mph35%29.94 "Hg10 mi
3:53 PM93 °FPassing clouds.6 mph34%29.95 "Hg10 mi
Weather by CustomWeather, © 2014

See weather overviewHow to use our weather pages